| time (UTC) | temp C | wind direction | speed KPH | gust KPH | rain 1hr cm | rain 24hr cm | rain mn cm | humidity % | barometer mb |
| 20260906113421 | 18 | 355 | 4.8 | 8.0 | 0.00 | 0.00 | 0.00 | 99 | 1019.9 |
| 20260906112917 | 18 | 15 | 4.8 | 4.8 | 0.00 | 0.00 | 0.00 | 99 | 1019.9 |
| 20260906112413 | 18 | 350 | 4.8 | 8.0 | 0.00 | 0.00 | 0.00 | 99 | 1019.6 |
| 20260906111908 | 18 | 346 | 6.4 | 6.4 | 0.00 | 0.00 | 0.00 | 99 | 1019.9 |
| 20260906111407 | 18 | 28 | 3.2 | 8.0 | 0.00 | 0.00 | 0.00 | 99 | 1019.6 |
| 20260906110903 | 18 | 0 | 3.2 | 8.0 | 0.00 | 0.00 | 0.00 | 99 | 1019.9 |
| 20260906110358 | 18 | 0 | 4.8 | 12.9 | 0.00 | 0.00 | 0.00 | 99 | 1019.6 |
| 20260906105857 | 18 | 356 | 3.2 | 8.0 | 0.00 | 0.00 | 0.00 | 99 | 1019.8 |
| 20260906105353 | 18 | 334 | 4.8 | 11.3 | 0.00 | 0.00 | 0.00 | 99 | 1019.9 |
| 20260906104848 | 18 | 0 | 6.4 | 11.3 | 0.00 | 0.00 | 0.00 | 99 | 1019.9 |
| 20260906104347 | 18 | 0 | 6.4 | 14.5 | 0.00 | 0.00 | 0.00 | 99 | 1019.8 |
| 20260906103845 | 18 | 346 | 9.7 | 12.9 | 0.00 | 0.00 | 0.00 | 99 | 1019.5 |
| 20260906103344 | 18 | 346 | 0.0 | 12.9 | 0.00 | 0.00 | 0.00 | 99 | 1019.8 |
| 20260906102840 | 18 | 12 | 4.8 | 8.0 | 0.00 | 0.00 | 0.00 | 99 | 1019.4 |
| 20260906102339 | 18 | 43 | 8.0 | 8.0 | 0.00 | 0.00 | 0.00 | 99 | 1019.1 |
| 20260906101834 | 18 | 14 | 8.0 | 8.0 | 0.00 | 0.00 | 0.00 | 99 | 1019.2 |
| 20260906101329 | 18 | 0 | 8.0 | 12.9 | 0.00 | 0.00 | 0.00 | 99 | 1019.3 |
| 20260906100825 | 18 | 340 | 1.6 | 6.4 | 0.00 | 0.00 | 0.00 | 99 | 1019.4 |
| 20260906100324 | 18 | 30 | 3.2 | 6.4 | 0.00 | 0.00 | 0.00 | 99 | 1019.3 |
| 20260906095819 | 18 | 24 | 3.2 | 8.0 | 0.00 | 0.00 | 0.00 | 99 | 1019.3 |
| 20260906095314 | 18 | 339 | 4.8 | 8.0 | 0.00 | 0.00 | 0.00 | 99 | 1019.3 |
| 20260906094814 | 18 | 357 | 8.0 | 8.0 | 0.00 | 0.00 | 0.00 | 99 | 1019.2 |
| 20260906094308 | 18 | 9 | 6.4 | 9.7 | 0.00 | 0.00 | 0.00 | 99 | 1019.4 |
| 20260906093800 | 18 | 350 | 4.8 | 8.0 | 0.00 | 0.00 | 0.00 | 99 | 1019.3 |
| 20260906093255 | 18 | 3 | 4.8 | 4.8 | 0.00 | 0.00 | 0.00 | 99 | 1019.4 |
| 20260906092749 | 18 | 0 | 3.2 | 8.0 | 0.00 | 0.00 | 0.00 | 99 | 1019.2 |
| 20260906092244 | 18 | 345 | 4.8 | 8.0 | 0.00 | 0.00 | 0.00 | 99 | 1019.1 |
| 20260906091740 | 18 | 350 | 4.8 | 8.0 | 0.00 | 0.00 | 0.00 | 99 | 1019.0 |
| 20260906091236 | 18 | 341 | 4.8 | 6.4 | 0.00 | 0.00 | 0.00 | 99 | 1019.2 |
| 20260906090732 | 18 | 350 | 8.0 | 8.0 | 0.00 | 0.00 | 0.00 | 99 | 1019.2 |
| 20260906090231 | 18 | 338 | 3.2 | 8.0 | 0.00 | 0.00 | 0.00 | 99 | 1019.1 |
| 20260906085730 | 18 | 350 | 3.2 | 8.0 | 0.00 | 0.00 | 0.00 | 99 | 1019.2 |
| 20260906085230 | 18 | 349 | 3.2 | 4.8 | 0.00 | 0.00 | 0.00 | 99 | 1019.2 |
| 20260906084724 | 18 | 325 | 0.0 | 3.2 | 0.00 | 0.00 | 0.00 | 99 | 1019.1 |
| 20260906084218 | 18 | 356 | 3.2 | 6.4 | 0.00 | 0.00 | 0.00 | 99 | 1019.3 |
| 20260906083714 | 18 | 344 | 3.2 | 6.4 | 0.00 | 0.00 | 0.00 | 99 | 1019.1 |
| 20260906083209 | 18 | 354 | 1.6 | 3.2 | 0.00 | 0.00 | 0.00 | 99 | 1019.1 |
| 20260906082704 | 18 | 18 | 3.2 | 4.8 | 0.00 | 0.00 | 0.00 | 99 | 1019.1 |
| 20260906082154 | 18 | 0 | 1.6 | 4.8 | 0.00 | 0.00 | 0.00 | 99 | 1019.1 |
| 20260906081649 | 18 | 14 | 0.0 | 4.8 | 0.00 | 0.00 | 0.00 | 99 | 1019.1 |
| 20260906081144 | 18 | 337 | 1.6 | 3.2 | 0.00 | 0.00 | 0.00 | 99 | 1019.1 |
| 20260906080641 | 18 | 11 | 3.2 | 4.8 | 0.00 | 0.00 | 0.00 | 99 | 1019.1 |
| 20260906080136 | 18 | 354 | 1.6 | 6.4 | 0.00 | 0.00 | 0.00 | 99 | 1019.2 |
| 20260906075630 | 18 | 21 | 3.2 | 3.2 | 0.00 | 0.00 | 0.00 | 99 | 1019.2 |
| 20260906075125 | 18 | 19 | 3.2 | 6.4 | 0.00 | 0.00 | 0.00 | 99 | 1019.2 |
| 20260906074620 | 18 | 346 | 4.8 | 4.8 | 0.00 | 0.00 | 0.00 | 99 | 1019.1 |
| 20260906074119 | 18 | 353 | 3.2 | 4.8 | 0.00 | 0.00 | 0.00 | 99 | 1019.0 |
| 20260906073614 | 19 | 331 | 3.2 | 4.8 | 0.00 | 0.00 | 0.00 | 99 | 1019.2 |
| 20260906073110 | 19 | 352 | 0.0 | 4.8 | 0.00 | 0.00 | 0.00 | 99 | 1019.3 |
| 20260906072604 | 19 | 0 | 1.6 | 4.8 | 0.00 | 0.00 | 0.00 | 99 | 1019.2 |
| 20260906072101 | 19 | 0 | 0.0 | 4.8 | 0.00 | 0.00 | 0.00 | 99 | 1019.2 |
| 20260906071557 | 19 | 0 | 4.8 | 8.0 | 0.00 | 0.00 | 0.00 | 99 | 1019.1 |
| 20260906071051 | 19 | 351 | 3.2 | 8.0 | 0.00 | 0.00 | 0.00 | 99 | 1019.2 |
| 20260906070548 | 19 | 0 | 0.0 | 6.4 | 0.00 | 0.00 | 0.00 | 98 | 1019.1 |
| 20260906070043 | 19 | 0 | 1.6 | 6.4 | 0.00 | 0.00 | 0.00 | 98 | 1019.2 |
| 20260906065542 | 20 | 48 | 3.2 | 4.8 | 0.00 | 0.00 | 0.00 | 98 | 1019.2 |
| 20260906065038 | 20 | 19 | 3.2 | 3.2 | 0.00 | 0.00 | 0.00 | 98 | 1019.4 |
| 20260906064534 | 20 | 26 | 3.2 | 6.4 | 0.00 | 0.00 | 0.00 | 98 | 1019.3 |
| 20260906064029 | 20 | 12 | 8.0 | 9.7 | 0.00 | 0.00 | 0.00 | 98 | 1019.4 |
| 20260906063524 | 20 | 346 | 3.2 | 6.4 | 0.00 | 0.00 | 0.00 | 97 | 1019.2 |
| 20260906063020 | 20 | 352 | 3.2 | 9.7 | 0.00 | 0.00 | 0.00 | 97 | 1019.4 |
| 20260906062515 | 20 | 2 | 6.4 | 8.0 | 0.00 | 0.00 | 0.00 | 97 | 1019.1 |
| 20260906062009 | 20 | 0 | 3.2 | 9.7 | 0.00 | 0.00 | 0.00 | 97 | 1019.3 |
| 20260906061505 | 20 | 347 | 6.4 | 11.3 | 0.00 | 0.00 | 0.00 | 96 | 1019.1 |
| 20260906060959 | 20 | 349 | 3.2 | 6.4 | 0.00 | 0.00 | 0.00 | 96 | 1019.3 |
| 20260906060456 | 20 | 0 | 6.4 | 8.0 | 0.00 | 0.00 | 0.00 | 96 | 1019.3 |
| 20260906055953 | 20 | 22 | 4.8 | 4.8 | 0.00 | 0.00 | 0.00 | 96 | 1019.1 |
| 20260906055448 | 20 | 0 | 4.8 | 8.0 | 0.00 | 0.00 | 0.00 | 96 | 1019.2 |
| 20260906054943 | 20 | 10 | 4.8 | 8.0 | 0.00 | 0.00 | 0.00 | 96 | 1019.5 |
| 20260906054438 | 20 | 15 | 4.8 | 6.4 | 0.00 | 0.00 | 0.00 | 95 | 1019.5 |
| 20260906053933 | 20 | 22 | 4.8 | 6.4 | 0.00 | 0.00 | 0.00 | 95 | 1019.4 |
| 20260906053430 | 20 | 352 | 3.2 | 9.7 | 0.00 | 0.00 | 0.00 | 95 | 1019.4 |
| 20260906052925 | 20 | 4 | 6.4 | 11.3 | 0.00 | 0.00 | 0.00 | 95 | 1019.3 |
| 20260906052421 | 20 | 347 | 4.8 | 6.4 | 0.00 | 0.00 | 0.00 | 96 | 1019.3 |
| 20260906051918 | 20 | 355 | 4.8 | 8.0 | 0.00 | 0.00 | 0.00 | 96 | 1019.2 |
| 20260906051418 | 20 | 41 | 6.4 | 9.7 | 0.00 | 0.00 | 0.00 | 96 | 1019.1 |
| 20260906050914 | 20 | 339 | 8.0 | 9.7 | 0.00 | 0.00 | 0.00 | 96 | 1019.1 |
| 20260906050408 | 20 | 357 | 3.2 | 8.0 | 0.00 | 0.00 | 0.00 | 96 | 1019.0 |
| 20260906045908 | 20 | 307 | 3.2 | 6.4 | 0.00 | 0.00 | 0.00 | 96 | 1019.1 |
| 20260906045406 | 20 | 0 | 3.2 | 4.8 | 0.00 | 0.00 | 0.00 | 96 | 1019.0 |
| 20260906044903 | 20 | 56 | 4.8 | 4.8 | 0.00 | 0.00 | 0.00 | 95 | 1018.9 |
| 20260906044403 | 20 | 355 | 4.8 | 4.8 | 0.00 | 0.00 | 0.00 | 95 | 1018.8 |
| 20260906043858 | 20 | 0 | 3.2 | 4.8 | 0.00 | 0.00 | 0.00 | 95 | 1018.9 |
| 20260906043354 | 20 | 16 | 4.8 | 8.0 | 0.00 | 0.00 | 0.00 | 95 | 1018.9 |
| 20260906042849 | 20 | 55 | 4.8 | 8.0 | 0.00 | 0.00 | 0.00 | 95 | 1018.8 |
| 20260906042348 | 20 | 331 | 4.8 | 6.4 | 0.00 | 0.00 | 0.00 | 95 | 1018.9 |
| 20260906041844 | 20 | 88 | 8.0 | 8.0 | 0.00 | 0.00 | 0.00 | 95 | 1018.8 |
| 20260906041340 | 20 | 358 | 6.4 | 8.0 | 0.00 | 0.00 | 0.00 | 95 | 1018.6 |
| 20260906040839 | 20 | 359 | 6.4 | 6.4 | 0.00 | 0.00 | 0.00 | 95 | 1018.6 |
| 20260906040335 | 20 | 63 | 4.8 | 11.3 | 0.00 | 0.00 | 0.00 | 95 | 1018.4 |
| 20260906035830 | 20 | 8 | 3.2 | 9.7 | 0.00 | 0.00 | 0.00 | 95 | 1018.5 |
| 20260906035325 | 20 | 46 | 8.0 | 11.3 | 0.00 | 0.00 | 0.00 | 94 | 1018.2 |
| 20260906034820 | 21 | 29 | 4.8 | 8.0 | 0.00 | 0.00 | 0.00 | 94 | 1018.4 |
| 20260906034315 | 20 | 46 | 9.7 | 9.7 | 0.00 | 0.00 | 0.00 | 95 | 1018.6 |
| 20260906033811 | 20 | 350 | 6.4 | 12.9 | 0.00 | 0.00 | 0.00 | 95 | 1018.2 |
| 20260906033310 | 20 | 331 | 1.6 | 9.7 | 0.00 | 0.00 | 0.00 | 95 | 1018.1 |
| 20260906032807 | 20 | 34 | 3.2 | 8.0 | 0.00 | 0.00 | 0.00 | 95 | 1018.2 |
| 20260906032305 | 20 | 19 | 4.8 | 12.9 | 0.00 | 0.00 | 0.00 | 95 | 1018.2 |
| 20260906031757 | 20 | 337 | 11.3 | 11.3 | 0.00 | 0.00 | 0.00 | 95 | 1018.0 |
| 20260906031253 | 20 | 9 | 6.4 | 9.7 | 0.00 | 0.00 | 0.00 | 95 | 1018.1 |
| 20260906030752 | 20 | 40 | 4.8 | 9.7 | 0.00 | 0.00 | 0.00 | 95 | 1017.9 |
| 20260906030248 | 20 | 75 | 4.8 | 4.8 | 0.00 | 0.00 | 0.00 | 94 | 1018.0 |
| 20260906025747 | 21 | 2 | 4.8 | 8.0 | 0.00 | 0.00 | 0.00 | 94 | 1018.1 |
| 20260906025241 | 21 | 90 | 4.8 | 8.0 | 0.00 | 0.00 | 0.00 | 94 | 1018.1 |
| 20260906024741 | 21 | 75 | 9.7 | 9.7 | 0.00 | 0.00 | 0.00 | 94 | 1017.9 |
| 20260906024240 | 21 | 26 | 6.4 | 9.7 | 0.00 | 0.00 | 0.00 | 94 | 1018.1 |
| 20260906023735 | 21 | 45 | 4.8 | 8.0 | 0.00 | 0.00 | 0.00 | 93 | 1017.9 |
| 20260906023231 | 21 | 35 | 1.6 | 9.7 | 0.00 | 0.00 | 0.00 | 93 | 1017.9 |
| 20260906022726 | 21 | 40 | 4.8 | 9.7 | 0.00 | 0.00 | 0.00 | 93 | 1017.8 |
| 20260906022221 | 21 | 97 | 8.0 | 12.9 | 0.00 | 0.00 | 0.00 | 92 | 1018.0 |
| 20260906021717 | 21 | 43 | 6.4 | 12.9 | 0.00 | 0.00 | 0.00 | 92 | 1018.0 |
| 20260906021215 | 21 | 13 | 11.3 | 11.3 | 0.00 | 0.00 | 0.00 | 92 | 1018.0 |
| 20260906020705 | 21 | 354 | 6.4 | 19.3 | 0.00 | 0.00 | 0.00 | 92 | 1017.7 |
| 20260906020200 | 21 | 15 | 3.2 | 8.0 | 0.00 | 0.00 | 0.00 | 92 | 1017.8 |
| 20260906015659 | 21 | 4 | 3.2 | 19.3 | 0.00 | 0.00 | 0.00 | 92 | 1017.9 |
| 20260906015153 | 21 | 23 | 6.4 | 16.1 | 0.00 | 0.00 | 0.00 | 92 | 1018.1 |
| 20260906014653 | 21 | 17 | 3.2 | 12.9 | 0.00 | 0.00 | 0.00 | 92 | 1018.3 |
| 20260906014149 | 21 | 63 | 4.8 | 8.0 | 0.00 | 0.00 | 0.00 | 92 | 1018.2 |
| 20260906013644 | 21 | 32 | 4.8 | 20.9 | 0.00 | 0.00 | 0.00 | 92 | 1018.0 |
| 20260906013140 | 21 | 351 | 14.5 | 17.7 | 0.00 | 0.00 | 0.00 | 92 | 1018.3 |
| 20260906012639 | 21 | 87 | 6.4 | 8.0 | 0.00 | 0.00 | 0.00 | 92 | 1018.1 |
| 20260906012134 | 21 | 13 | 8.0 | 12.9 | 0.00 | 0.00 | 0.00 | 91 | 1018.1 |
| 20260906011630 | 21 | 8 | 8.0 | 14.5 | 0.00 | 0.00 | 0.00 | 92 | 1018.0 |
| 20260906011125 | 21 | 341 | 9.7 | 11.3 | 0.00 | 0.00 | 0.00 | 92 | 1018.0 |
| 20260906010620 | 21 | 49 | 9.7 | 16.1 | 0.00 | 0.00 | 0.00 | 92 | 1017.9 |
| 20260906010116 | 21 | 23 | 11.3 | 11.3 | 0.00 | 0.00 | 0.00 | 92 | 1018.1 |
| 20260906005616 | 21 | 0 | 4.8 | 8.0 | 0.00 | 0.00 | 0.00 | 91 | 1017.9 |
| 20260906005115 | 22 | 351 | 12.9 | 17.7 | 0.00 | 0.00 | 0.00 | 91 | 1018.0 |
| 20260906004614 | 22 | 0 | 8.0 | 17.7 | 0.00 | 0.00 | 0.00 | 91 | 1017.8 |
| 20260906004109 | 21 | 76 | 14.5 | 16.1 | 0.00 | 0.00 | 0.00 | 91 | 1017.9 |
| 20260906003604 | 21 | 0 | 8.0 | 24.1 | 0.00 | 0.00 | 0.00 | 91 | 1017.8 |
| 20260906003100 | 21 | 14 | 4.8 | 8.0 | 0.00 | 0.00 | 0.00 | 91 | 1017.8 |
| 20260906002555 | 21 | 25 | 4.8 | 8.0 | 0.00 | 0.00 | 0.00 | 91 | 1017.9 |
| 20260906002050 | 21 | 25 | 4.8 | 11.3 | 0.00 | 0.00 | 0.00 | 91 | 1017.9 |
| 20260906001545 | 21 | 64 | 8.0 | 12.9 | 0.00 | 0.00 | 0.00 | 91 | 1017.6 |
| 20260906001044 | 21 | 100 | 9.7 | 32.2 | 0.00 | 0.00 | 0.00 | 91 | 1017.9 |
| 20260906000541 | 21 | 358 | 19.3 | 24.1 | 0.00 | 0.00 | 0.00 | 91 | 1017.8 |
| 20260906000036 | 22 | 347 | 12.9 | 22.5 | 0.00 | 0.00 | 0.00 | 91 | 1017.7 |
| 20260905235530 | 22 | 65 | 8.0 | 22.5 | 0.00 | 0.00 | 0.00 | 90 | 1017.5 |
| 20260905235025 | 22 | 102 | 8.0 | 27.4 | 0.00 | 0.00 | 0.00 | 90 | 1017.3 |
| 20260905234520 | 22 | 57 | 8.0 | 19.3 | 0.00 | 0.00 | 0.00 | 90 | 1017.4 |
| 20260905234015 | 23 | 81 | 17.7 | 24.1 | 0.00 | 0.00 | 0.00 | 89 | 1017.5 |
| 20260905233510 | 23 | 351 | 12.9 | 25.7 | 0.00 | 0.00 | 0.00 | 88 | 1017.1 |
| 20260905233009 | 23 | 351 | 9.7 | 19.3 | 0.00 | 0.00 | 0.00 | 88 | 1017.4 |
| 20260905232505 | 23 | 10 | 9.7 | 17.7 | 0.00 | 0.00 | 0.00 | 88 | 1017.2 |
| 20260905232001 | 24 | 60 | 6.4 | 19.3 | 0.00 | 0.00 | 0.00 | 87 | 1017.1 |
| 20260905231456 | 24 | 12 | 9.7 | 19.3 | 0.00 | 0.00 | 0.00 | 87 | 1017.2 |
| 20260905230952 | 24 | 347 | 9.7 | 12.9 | 0.00 | 0.00 | 0.00 | 86 | 1017.2 |
| 20260905230450 | 25 | 48 | 8.0 | 12.9 | 0.00 | 0.00 | 0.00 | 86 | 1017.0 |
| 20260905225949 | 25 | 18 | 11.3 | 27.4 | 0.00 | 0.00 | 0.00 | 86 | 1016.9 |
| 20260905225444 | 25 | 322 | 12.9 | 24.1 | 0.00 | 0.00 | 0.00 | 84 | 1016.8 |
| 20260905224939 | 25 | 2 | 9.7 | 22.5 | 0.00 | 0.00 | 0.00 | 85 | 1016.8 |
| 20260905224435 | 25 | 38 | 19.3 | 19.3 | 0.00 | 0.00 | 0.00 | 84 | 1016.7 |
| 20260905223933 | 26 | 61 | 6.4 | 14.5 | 0.00 | 0.00 | 0.00 | 83 | 1016.6 |
| 20260905223432 | 25 | 49 | 4.8 | 14.5 | 0.00 | 0.00 | 0.00 | 84 | 1016.7 |
| 20260905222927 | 25 | 17 | 12.9 | 29.0 | 0.00 | 0.00 | 0.00 | 85 | 1016.7 |
| 20260905222426 | 26 | 36 | 3.2 | 19.3 | 0.00 | 0.00 | 0.00 | 84 | 1016.8 |
| 20260905221922 | 26 | 23 | 8.0 | 11.3 | 0.00 | 0.00 | 0.00 | 84 | 1016.6 |
| 20260905221419 | 26 | 25 | 6.4 | 20.9 | 0.00 | 0.00 | 0.00 | 83 | 1016.7 |
| 20260905220915 | 26 | 10 | 9.7 | 20.9 | 0.00 | 0.00 | 0.00 | 82 | 1016.4 |
| 20260905220410 | 26 | 72 | 6.4 | 19.3 | 0.00 | 0.00 | 0.00 | 82 | 1016.4 |
| 20260905215909 | 26 | 30 | 6.4 | 14.5 | 0.00 | 0.00 | 0.00 | 82 | 1016.5 |
| 20260905215405 | 26 | 341 | 8.0 | 11.3 | 0.00 | 0.00 | 0.00 | 81 | 1016.4 |
| 20260905214901 | 26 | 2 | 16.1 | 16.1 | 0.00 | 0.00 | 0.00 | 80 | 1016.6 |
| 20260905214356 | 26 | 0 | 6.4 | 17.7 | 0.00 | 0.00 | 0.00 | 79 | 1016.6 |
| 20260905213851 | 27 | 49 | 8.0 | 19.3 | 0.00 | 0.00 | 0.00 | 77 | 1016.5 |
| 20260905213348 | 27 | 41 | 9.7 | 17.7 | 0.00 | 0.00 | 0.00 | 77 | 1016.3 |
| 20260905212848 | 27 | 71 | 11.3 | 14.5 | 0.00 | 0.00 | 0.00 | 77 | 1016.4 |
| 20260905212348 | 28 | 54 | 8.0 | 8.0 | 0.00 | 0.00 | 0.00 | 75 | 1016.3 |
| 20260905211842 | 28 | 25 | 4.8 | 9.7 | 0.00 | 0.00 | 0.00 | 74 | 1016.3 |
| 20260905211338 | 28 | 19 | 3.2 | 11.3 | 0.00 | 0.00 | 0.00 | 74 | 1016.3 |
| 20260905210834 | 27 | 355 | 4.8 | 11.3 | 0.00 | 0.00 | 0.00 | 77 | 1016.4 |
| 20260905210334 | 27 | 101 | 6.4 | 14.5 | 0.00 | 0.00 | 0.00 | 78 | 1016.5 |
| 20260905205832 | 27 | 24 | 6.4 | 19.3 | 0.00 | 0.00 | 0.00 | 78 | 1016.4 |
| 20260905205327 | 27 | 64 | 4.8 | 16.1 | 0.00 | 0.00 | 0.00 | 77 | 1016.4 |
| 20260905204827 | 27 | 7 | 6.4 | 9.7 | 0.00 | 0.00 | 0.00 | 78 | 1016.4 |
| 20260905204323 | 27 | 13 | 8.0 | 12.9 | 0.00 | 0.00 | 0.00 | 80 | 1016.5 |
| 20260905203821 | 27 | 42 | 8.0 | 16.1 | 0.00 | 0.00 | 0.00 | 80 | 1016.7 |
| 20260905203318 | 27 | 14 | 6.4 | 11.3 | 0.00 | 0.00 | 0.00 | 78 | 1016.9 |
| 20260905202813 | 26 | 41 | 9.7 | 11.3 | 0.00 | 0.00 | 0.00 | 80 | 1016.6 |
| 20260905202308 | 26 | 351 | 8.0 | 9.7 | 0.00 | 0.00 | 0.00 | 82 | 1016.5 |
| 20260905201803 | 26 | 8 | 8.0 | 17.7 | 0.00 | 0.00 | 0.00 | 82 | 1016.7 |
| 20260905201259 | 26 | 0 | 0.0 | 8.0 | 0.00 | 0.00 | 0.00 | 83 | 1016.7 |
| 20260905200753 | 26 | 25 | 8.0 | 12.9 | 0.00 | 0.00 | 0.00 | 82 | 1016.6 |
| 20260905200249 | 26 | 344 | 14.5 | 14.5 | 0.00 | 0.00 | 0.00 | 83 | 1016.7 |
| 20260905195747 | 26 | 10 | 0.0 | 6.4 | 0.00 | 0.00 | 0.00 | 82 | 1016.7 |
| 20260905195242 | 26 | 315 | 6.4 | 6.4 | 0.00 | 0.00 | 0.00 | 84 | 1016.6 |
| 20260905194738 | 26 | 354 | 4.8 | 9.7 | 0.00 | 0.00 | 0.00 | 84 | 1016.8 |
| 20260905194237 | 25 | 354 | 4.8 | 16.1 | 0.00 | 0.00 | 0.00 | 86 | 1016.9 |
| 20260905193736 | 26 | 5 | 3.2 | 4.8 | 0.00 | 0.00 | 0.00 | 85 | 1017.0 |
| 20260905193231 | 25 | 0 | 6.4 | 16.1 | 0.00 | 0.00 | 0.00 | 86 | 1016.9 |
| 20260905192727 | 25 | 135 | 4.8 | 12.9 | 0.00 | 0.00 | 0.00 | 86 | 1017.0 |
| 20260905192223 | 25 | 47 | 9.7 | 12.9 | 0.00 | 0.00 | 0.00 | 86 | 1017.1 |
| 20260905191722 | 25 | 348 | 3.2 | 8.0 | 0.00 | 0.00 | 0.00 | 86 | 1017.0 |
| 20260905191221 | 25 | 85 | 6.4 | 11.3 | 0.00 | 0.00 | 0.00 | 87 | 1017.2 |
| 20260905190720 | 25 | 7 | 3.2 | 8.0 | 0.00 | 0.00 | 0.00 | 87 | 1017.1 |
| 20260905190219 | 25 | 71 | 0.0 | 6.4 | 0.00 | 0.00 | 0.00 | 87 | 1017.2 |
| 20260905185718 | 25 | 20 | 4.8 | 9.7 | 0.00 | 0.00 | 0.00 | 88 | 1017.2 |
| 20260905185213 | 25 | 357 | 8.0 | 12.9 | 0.00 | 0.00 | 0.00 | 88 | 1017.3 |
| 20260905184707 | 24 | 7 | 8.0 | 14.5 | 0.00 | 0.00 | 0.00 | 89 | 1017.5 |
| 20260905184206 | 24 | 353 | 11.3 | 14.5 | 0.00 | 0.00 | 0.00 | 89 | 1017.3 |
| 20260905183700 | 24 | 0 | 6.4 | 17.7 | 0.00 | 0.00 | 0.00 | 90 | 1017.3 |
| 20260905183155 | 25 | 317 | 8.0 | 14.5 | 0.00 | 0.00 | 0.00 | 88 | 1017.2 |
| 20260905182655 | 24 | 30 | 4.8 | 16.1 | 0.00 | 0.00 | 0.00 | 89 | 1017.2 |
| 20260905182154 | 24 | 337 | 8.0 | 14.5 | 0.00 | 0.00 | 0.00 | 90 | 1017.3 |
| 20260905181650 | 24 | 31 | 9.7 | 16.1 | 0.00 | 0.00 | 0.00 | 91 | 1017.3 |
| 20260905181149 | 23 | 346 | 6.4 | 11.3 | 0.00 | 0.00 | 0.00 | 91 | 1017.4 |
| 20260905180643 | 24 | 116 | 6.4 | 12.9 | 0.00 | 0.00 | 0.00 | 91 | 1017.3 |
| 20260905180139 | 23 | 4 | 3.2 | 16.1 | 0.00 | 0.00 | 0.00 | 91 | 1017.2 |
| 20260905175638 | 24 | 90 | 8.0 | 9.7 | 0.00 | 0.00 | 0.00 | 91 | 1017.2 |
| 20260905175133 | 23 | 350 | 6.4 | 14.5 | 0.00 | 0.00 | 0.00 | 91 | 1017.1 |
| 20260905174629 | 24 | 8 | 3.2 | 9.7 | 0.00 | 0.00 | 0.00 | 91 | 1017.2 |
| 20260905174124 | 24 | 0 | 4.8 | 12.9 | 0.00 | 0.00 | 0.00 | 91 | 1017.2 |
| 20260905173621 | 24 | 346 | 4.8 | 11.3 | 0.00 | 0.00 | 0.00 | 91 | 1017.2 |
| 20260905173116 | 24 | 90 | 9.7 | 12.9 | 0.00 | 0.00 | 0.00 | 91 | 1017.2 |
| 20260905172615 | 24 | 18 | 6.4 | 14.5 | 0.00 | 0.00 | 0.00 | 91 | 1017.2 |
| 20260905172110 | 25 | 349 | 12.9 | 12.9 | 0.00 | 0.00 | 0.00 | 90 | 1017.1 |
| 20260905171606 | 25 | 85 | 6.4 | 12.9 | 0.00 | 0.00 | 0.00 | 90 | 1017.1 |
| 20260905171102 | 25 | 353 | 9.7 | 11.3 | 0.00 | 0.00 | 0.00 | 89 | 1017.2 |
| 20260905170558 | 25 | 354 | 11.3 | 14.5 | 0.00 | 0.00 | 0.00 | 88 | 1017.2 |
| 20260905170054 | 25 | 83 | 6.4 | 8.0 | 0.00 | 0.00 | 0.00 | 89 | 1017.1 |
| 20260905165548 | 25 | 11 | 8.0 | 9.7 | 0.00 | 0.00 | 0.00 | 89 | 1017.1 |
| 20260905165043 | 25 | 53 | 8.0 | 11.3 | 0.00 | 0.00 | 0.00 | 89 | 1017.3 |
| 20260905164538 | 25 | 60 | 8.0 | 19.3 | 0.00 | 0.00 | 0.00 | 89 | 1017.4 |
| 20260905164032 | 25 | 35 | 4.8 | 14.5 | 0.00 | 0.00 | 0.00 | 90 | 1017.2 |
| 20260905163528 | 25 | 45 | 12.9 | 19.3 | 0.00 | 0.00 | 0.00 | 89 | 1017.3 |
| 20260905163025 | 25 | 102 | 9.7 | 17.7 | 0.00 | 0.00 | 0.00 | 89 | 1017.4 |
| 20260905162520 | 25 | 103 | 11.3 | 16.1 | 0.00 | 0.00 | 0.00 | 89 | 1017.4 |
| 20260905162015 | 25 | 70 | 6.4 | 16.1 | 0.00 | 0.00 | 0.00 | 89 | 1017.2 |
| 20260905161515 | 25 | 37 | 11.3 | 17.7 | 0.00 | 0.00 | 0.00 | 88 | 1017.2 |
| 20260905161012 | 25 | 19 | 8.0 | 12.9 | 0.00 | 0.00 | 0.00 | 88 | 1017.3 |
| 20260905160505 | 25 | 85 | 3.2 | 9.7 | 0.00 | 0.00 | 0.00 | 90 | 1017.3 |
| 20260905160000 | 25 | 103 | 11.3 | 16.1 | 0.00 | 0.00 | 0.00 | 89 | 1017.4 |
| 20260905155455 | 25 | 14 | 1.6 | 12.9 | 0.00 | 0.00 | 0.00 | 89 | 1017.3 |
| 20260905154953 | 25 | 19 | 4.8 | 17.7 | 0.00 | 0.00 | 0.00 | 90 | 1017.2 |
| 20260905154449 | 25 | 48 | 9.7 | 16.1 | 0.00 | 0.00 | 0.00 | 90 | 1017.0 |
| 20260905153944 | 25 | 355 | 12.9 | 12.9 | 0.00 | 0.00 | 0.00 | 91 | 1017.0 |
| 20260905153440 | 25 | 124 | 3.2 | 14.5 | 0.00 | 0.00 | 0.00 | 91 | 1017.0 |
| 20260905152939 | 24 | 349 | 8.0 | 20.9 | 0.00 | 0.00 | 0.00 | 92 | 1016.8 |
| 20260905152440 | 25 | 64 | 8.0 | 14.5 | 0.00 | 0.00 | 0.00 | 90 | 1016.9 |
| 20260905151940 | 25 | 75 | 8.0 | 17.7 | 0.00 | 0.00 | 0.00 | 90 | 1016.9 |
| 20260905151435 | 25 | 108 | 4.8 | 22.5 | 0.00 | 0.00 | 0.00 | 90 | 1016.6 |
| 20260905150930 | 24 | 143 | 0.0 | 12.9 | 0.00 | 0.00 | 0.00 | 94 | 1016.7 |
| 20260905150430 | 23 | 346 | 12.9 | 12.9 | 0.00 | 0.00 | 0.00 | 94 | 1016.7 |
| 20260905145926 | 23 | 35 | 8.0 | 19.3 | 0.00 | 0.00 | 0.00 | 94 | 1016.6 |
| 20260905145421 | 23 | 72 | 14.5 | 14.5 | 0.00 | 0.00 | 0.00 | 94 | 1016.5 |
| 20260905144915 | 23 | 0 | 1.6 | 11.3 | 0.00 | 0.00 | 0.00 | 95 | 1016.5 |
| 20260905144411 | 23 | 18 | 3.2 | 9.7 | 0.00 | 0.00 | 0.00 | 95 | 1016.6 |
| 20260905143909 | 23 | 320 | 11.3 | 16.1 | 0.00 | 0.00 | 0.00 | 96 | 1016.5 |
| 20260905143403 | 23 | 337 | 9.7 | 14.5 | 0.00 | 0.00 | 0.00 | 96 | 1016.6 |
| 20260905142858 | 23 | 98 | 3.2 | 9.7 | 0.00 | 0.00 | 0.00 | 96 | 1016.4 |
| 20260905142356 | 23 | 34 | 3.2 | 12.9 | 0.00 | 0.00 | 0.00 | 96 | 1016.5 |
| 20260905141852 | 23 | 13 | 11.3 | 14.5 | 0.00 | 0.00 | 0.00 | 97 | 1016.6 |
| 20260905141347 | 23 | 12 | 4.8 | 11.3 | 0.00 | 0.00 | 0.00 | 97 | 1016.7 |
| 20260905140844 | 22 | 45 | 4.8 | 20.9 | 0.00 | 0.00 | 0.00 | 98 | 1016.4 |
| 20260905140344 | 22 | 348 | 9.7 | 19.3 | 0.00 | 0.00 | 0.00 | 98 | 1016.5 |
| 20260905135842 | 22 | 74 | 1.6 | 9.7 | 0.00 | 0.00 | 0.00 | 99 | 1016.4 |
| 20260905135338 | 22 | 5 | 4.8 | 14.5 | 0.00 | 0.00 | 0.00 | 99 | 1016.4 |
| 20260905134833 | 22 | 354 | 17.7 | 17.7 | 0.00 | 0.00 | 0.00 | 99 | 1016.5 |
| 20260905134326 | 22 | 68 | 3.2 | 6.4 | 0.00 | 0.00 | 0.00 | 99 | 1016.5 |
| 20260905133821 | 22 | 17 | 3.2 | 14.5 | 0.00 | 0.00 | 0.00 | 99 | 1016.5 |
| 20260905133316 | 22 | 5 | 8.0 | 8.0 | 0.00 | 0.00 | 0.00 | 99 | 1016.4 |
| 20260905132815 | 22 | 23 | 1.6 | 12.9 | 0.00 | 0.00 | 0.00 | 99 | 1016.4 |
| 20260905132311 | 21 | 70 | 3.2 | 8.0 | 0.00 | 0.00 | 0.00 | 99 | 1016.7 |
| 20260905131805 | 21 | 8 | 9.7 | 11.3 | 0.00 | 0.00 | 0.00 | 99 | 1016.7 |
| 20260905131301 | 21 | 37 | 8.0 | 11.3 | 0.00 | 0.00 | 0.00 | 99 | 1016.6 |
| 20260905130755 | 21 | 346 | 9.7 | 14.5 | 0.00 | 0.00 | 0.00 | 99 | 1016.8 |
| 20260905130254 | 21 | 348 | 6.4 | 9.7 | 0.00 | 0.00 | 0.00 | 99 | 1016.3 |
| 20260905125750 | 21 | 359 | 8.0 | 9.7 | 0.00 | 0.00 | 0.00 | 99 | 1016.0 |
| 20260905125244 | 21 | 33 | 6.4 | 8.0 | 0.00 | 0.00 | 0.00 | 99 | 1015.9 |
| 20260905124741 | 21 | 62 | 12.9 | 16.1 | 0.00 | 0.00 | 0.00 | 99 | 1015.8 |
| 20260905124237 | 21 | 355 | 8.0 | 19.3 | 0.00 | 0.00 | 0.00 | 99 | 1015.8 |
| 20260905123732 | 21 | 3 | 9.7 | 14.5 | 0.00 | 0.00 | 0.00 | 99 | 1015.8 |
| 20260905123229 | 22 | 32 | 4.8 | 9.7 | 0.00 | 0.00 | 0.00 | 99 | 1015.5 |
| 20260905122728 | 22 | 3 | 0.0 | 12.9 | 0.00 | 0.00 | 0.00 | 99 | 1015.6 |
| 20260905122223 | 22 | 0 | 1.6 | 11.3 | 0.00 | 0.00 | 0.00 | 99 | 1015.5 |
| 20260905121718 | 22 | 0 | 6.4 | 6.4 | 0.00 | 0.00 | 0.00 | 99 | 1015.4 |
| 20260905121214 | 22 | 0 | 0.0 | 4.8 | 0.00 | 0.00 | 0.00 | 99 | 1015.4 |
| 20260905120713 | 22 | 299 | 4.8 | 14.5 | 0.00 | 0.00 | 0.00 | 99 | 1015.6 |
| 20260905120207 | 22 | 352 | 4.8 | 8.0 | 0.00 | 0.00 | 0.00 | 99 | 1015.1 |
| 20260905115702 | 22 | 7 | 8.0 | 9.7 | 0.00 | 0.00 | 0.00 | 99 | 1015.0 |
| 20260905115157 | 22 | 8 | 0.0 | 4.8 | 0.00 | 0.00 | 0.00 | 99 | 1015.1 |
| 20260905114656 | 22 | 358 | 9.7 | 9.7 | 0.00 | 0.00 | 0.00 | 99 | 1015.2 |
| 20260905114154 | 22 | 357 | 4.8 | 6.4 | 0.00 | 0.00 | 0.00 | 99 | 1015.1 |